Regional Weather Roundup
Issued by NWS Sioux Falls, SD

Home | Current Version | Previous Version | Graphics & Text | Print | Product List | Glossary On
Versions: 1 2 3 4 5 6 7 8 9 10 11 12 13 14 15 16 17 18 19 20 21 22 23 24 25 26 27 28 29 30 31 32 33 34 35 36 37 38 39 40 41 42 43 44 45 46 47 48 49 50
000
ASUS43 KFSD 261710
RWRFSD

WEATHER ROUNDUP FOR SE SOUTH DAKOTA/SW MINNESOTA/NW IOWA
NATIONAL WEATHER SERVICE SIOUX FALLS SD
1200 PM CDT WED APR 26 2017

NOTE: "FAIR" INDICATES FEW OR NO CLOUDS BELOW 12,000 FEET WITH NO
SIGNIFICANT WEATHER AND OR OBSTRUCTIONS TO VISIBILITY.


SDZ038>040-050-052>070-261800-
SOUTHEAST SOUTH DAKOTA

CITY           SKY/WX    TMP DP  RH WIND       PRES   REMARKS
BROOKINGS      CLOUDY    33  28  81 N21       29.64F WCI  21
CHAMBERLAIN    CLOUDY    37  28  70 NW20G28   29.77F
HURON          CLOUDY    34  26  72 N25G31    29.74F WCI  21
MADISON        CLOUDY    32  32 100 N18G31    29.66F WCI  20
MITCHELL       CLOUDY    35  28  75 N25G36    29.75S WCI  23
SIOUX FALLS    CLOUDY    37  32  82 NW22G29   29.65F
WINNER         CLOUDY    37  28  70 NW22G30   29.79S
YANKTON        CLOUDY   N/A N/A N/A NW22G32   29.70R
$$

MNZ071-072-080-081-089-090-097-098-261800-
SOUTHWEST MINNESOTA

CITY           SKY/WX    TMP DP  RH WIND       PRES   REMARKS
FAIRMONT       CLOUDY    38  35  89 NW18      29.56S
JACKSON        CLOUDY    36  34  93 NW23G30   29.57F
LUVERNE        CLOUDY    34  30  86 N17G24    29.63S WCI  23
MARSHALL       CLOUDY    34  33  96 N20       29.63R WCI  23
MONTEVIDEO     CLOUDY    36  36 100 N15       29.62F
PIPESTONE      CLOUDY    34  28  80 N18G25    29.61  WCI  23
REDWOOD FALLS  CLOUDY    38  31  76 N15G22    29.60R
TRACY          CLOUDY    36  35  97 NW16G24   29.62S FOG
WINDOM         SUNNY     37  36  93 NW23      29.56F
WORTHINGTON    CLOUDY    35  33  92 N21       29.58F WCI  24
$$

IAZ001>003-012>014-020>022-031-032-NEZ013-014-SDZ071-261800-
NORTHWEST IOWA

CITY           SKY/WX    TMP DP  RH WIND       PRES   REMARKS
CHEROKEE       CLOUDY    38  36  92 NW10G20   29.65R
DENISON        CLOUDY    37  36  93 NW15G22   29.66F
ESTHERVILLE    CLOUDY    38  36  92 N17       29.57S
LE MARS        CLOUDY    36  34  93 NW16G26   29.68R
ORANGE CITY    CLOUDY    36  34  93 NW16G23   29.65R
SHELDON        CLOUDY    36  34  93 NW18      29.62R
SIOUX CITY     CLOUDY    38  32  79 NW21G30   29.68R
SPENCER        CLOUDY    39  35  86 NW20      29.61R
STORM LAKE       N/A     37  36  93 NW17      29.64R
$$

ABBREVIATIONS USED IN REMARKS
   TC - TEMPERATURE IN CELSIUS
  WCI - WIND CHILL INDEX
   HX - HEAT INDEX
  VSB - VISIBILITY





USA.gov is the U.S. government's official web portal to all federal, state and local government web resources and services.